Location: UMBC
(39.2555°N, 76.7093°W)
Time: 16:13:21
(UTC+01:00)

Amateur Radio Satellites - All Passes

Search period start: 04 March 2015 15:43
Search period end: 05 March 2015 15:43
Location: UMBC, 39.2555°N, 76.7093°W

Satellite Date Start Highest point End Downlink Frequencies (MHz)
Time Altitude Azimuth
UWE-3 04 Mar 15:43:26 15:47:20 40° 98° (E) 15:51:18 435.000/436.395/437.385
ISS 04 Mar 15:54:01 15:56:18 17° 338° (NNW) 15:58:33 145.825
GOMX 1 04 Mar 15:54:19 15:57:49 23° 291° (WNW) 16:01:07 467.674
SO-50 04 Mar 15:54:30 15:59:23 60° 55° (NE) 16:04:16 436.795
NANOSAT C BR1 04 Mar 15:56:34 16:00:38 43° 73° (ENE) 16:04:43 145.865
BRITE-PL 04 Mar 15:59:05 16:01:46 15° 295° (WNW) 16:04:11 437.365/2234.400
AAUSAT CUBESAT 2 04 Mar 16:01:37 16:05:23 32° 288° (WNW) 16:09:06 437.432
COMPASS 1 04 Mar 16:05:48 16:09:19 25° 290° (WNW) 16:12:46 437.405
Oscar 11 04 Mar 16:06:12 16:10:30 63° 285° (WNW) 16:14:47 145.826/435.025
CINEMA 3 04 Mar 16:15:43 16:19:33 36° 288° (WNW) 16:23:20 145.822/145.860
DOVE 4 04 Mar 16:21:25 16:24:18 18° 293° (WNW) 16:27:01 437.250
CUBEBUG 2 04 Mar 16:24:32 16:28:35 52° 286° (WNW) 16:32:38 437.445
50 SAT 04 Mar 16:24:53 16:28:28 33° 97° (E) 16:32:06 437.505
GONETS M04 04 Mar 16:28:56 16:36:13 29° 275° (W) 16:43:15
QB50P1 04 Mar 16:29:38 16:33:55 76° 258° (WSW) 16:38:13 145.935-145.965
BUGSAT 1 04 Mar 16:30:48 16:35:04 82° 79° (E) 16:39:22 437.445
UNISAT 6 04 Mar 16:31:29 16:35:38 39° 262° (W) 16:39:42 437.425
DX 1 04 Mar 16:33:26 16:37:48 72° 285° (WNW) 16:42:07 434.975-435.025
RS-15 04 Mar 16:33:50 16:42:17 23° 257° (WSW) 16:50:17 29.354- 29.394
QB50P2 04 Mar 16:34:09 16:38:25 66° 259° (W) 16:42:41 145.880/145.840
SEEDS 04 Mar 16:38:07 16:39:04 10° 295° (WNW) 16:39:45 437.485
DANDE 04 Mar 16:39:35 16:41:57 30° 76° (ENE) 16:44:21 436.750
CUBEBUG 1 04 Mar 16:42:45 16:46:17 24° 94° (E) 16:49:51 437.445
AISAT 04 Mar 16:44:43 16:49:07 61° 101° (E) 16:53:30 437.250
HUMSAT D 04 Mar 16:45:50 16:49:58 88° 293° (WNW) 16:54:06 437.325/437.525
DUCHIFAT 1 04 Mar 16:47:49 16:51:58 47° 261° (W) 16:56:06 145.980
VELOX 1 04 Mar 16:53:21 16:57:49 74° 102° (ESE) 17:02:13 145.980
FUNcube-1 04 Mar 16:54:52 16:58:41 35° 288° (WNW) 17:02:29 145.935
TIGRISAT 04 Mar 16:56:34 17:00:02 22° 266° (W) 17:03:22 435.000
ZACube-1 04 Mar 16:56:49 17:00:35 33° 288° (WNW) 17:04:19 437.345
CUSAT 1 04 Mar 16:58:43 17:01:17 68° 262° (W) 17:04:02 437.405
DELFI C3 04 Mar 16:59:35 17:02:34 19° 291° (WNW) 17:05:27 145.870
UKube-1 04 Mar 17:01:02 17:05:03 37° 289° (WNW) 17:09:01 .
SPROUT 04 Mar 17:10:04 17:11:00 11° 88° (E) 17:12:12 437.525
POPSAT HIP 1 04 Mar 17:10:23 17:14:03 26° 265° (W) 17:17:39 437.405
POLYITAN 1 04 Mar 17:10:51 17:14:28 25° 265° (W) 17:18:01 437.675
ANTELSAT 04 Mar 17:12:14 17:14:49 15° 269° (W) 17:17:12 437.575/2403.000
ESTCUBE 1 04 Mar 17:15:31 17:20:04 62° 101° (E) 17:24:34 437.505/2401.250
UWE-3 04 Mar 17:21:02 17:23:38 16° 292° (WNW) 17:26:04 435.000/436.395/437.385
HO-68 04 Mar 17:25:50 17:28:40 12° 307° (NW) 17:31:04 435.675
NANOSAT C BR1 04 Mar 17:34:13 17:36:46 15° 269° (W) 17:39:09 145.865
SO-50 04 Mar 17:36:26 17:39:32 16° 250° (WSW) 17:42:25 436.795
50 SAT 04 Mar 18:00:37 18:03:16 17° 292° (WNW) 18:05:47 437.505
CUBEBUG 1 04 Mar 18:18:50 18:22:40 29° 290° (WNW) 18:26:25 437.445
Gurwin Techsat 1B 04 Mar 18:21:52 18:23:51 12° 61° (ENE) 18:26:09 435.225
AISAT 04 Mar 18:23:13 18:25:17 13° 296° (WNW) 18:27:08 437.250
VELOX 1 04 Mar 18:32:44 18:33:51 11° 297° (WNW) 18:34:43 145.980
Oscar 19 04 Mar 18:33:00 18:38:03 61° 74° (ENE) 18:43:08 437.125/150
ITAMSAT 1 04 Mar 18:36:40 18:40:37 23° 66° (ENE) 18:44:45 435.822/435.867
TISAT 1 04 Mar 18:40:39 18:44:53 72° 285° (WNW) 18:49:04 437.305
SPROUT 04 Mar 18:43:20 18:47:35 59° 285° (WNW) 18:51:46 437.525
ESTCUBE 1 04 Mar 18:54:15 18:56:29 13° 295° (WNW) 18:58:29 437.505/2401.250
SWISSCUBE 04 Mar 19:09:21 19:13:45 35° 97° (E) 19:18:10 437.505
ISS 04 Mar 19:09:22 19:11:16 15° 18° (NNE) 19:13:13 145.825
BEESAT 04 Mar 19:17:34 19:22:03 39° 98° (E) 19:26:33 436.000
AO-7 04 Mar 19:28:34 19:33:53 20° 54° (NE) 19:39:32 29.400- 29.500
ITUPSAT 1 04 Mar 19:45:55 19:50:46 77° 102° (ESE) 19:55:35 437.325
Gurwin Techsat 1B 04 Mar 19:57:52 20:03:12 85° 255° (WSW) 20:08:34 435.225
HORYU 2 04 Mar 20:00:25 20:04:00 25° 69° (ENE) 20:07:40 437.375
ITAMSAT 1 04 Mar 20:14:57 20:19:54 43° 262° (W) 20:24:52 435.822/435.867
Oscar 19 04 Mar 20:14:58 20:17:55 15° 271° (W) 20:20:36 437.125/150
JAS-2 04 Mar 20:22:02 20:25:25 17° 59° (ENE) 20:29:14 435.910
KKS-1 04 Mar 20:35:05 20:39:23 48° 99° (E) 20:43:41 437.445
STARS 04 Mar 20:37:13 20:41:09 32° 97° (E) 20:45:05 437.465
ISS 04 Mar 20:44:57 20:48:10 70° 38° (NE) 20:51:23 145.825
SWISSCUBE 04 Mar 20:47:35 20:51:28 24° 292° (WNW) 20:55:13 437.505
BEESAT 04 Mar 20:56:00 20:59:41 22° 293° (WNW) 21:03:14 436.000
AO-7 04 Mar 21:17:19 21:25:41 86° 72° (ENE) 21:34:04 29.400- 29.500
YUBILEINY 04 Mar 21:21:54 21:30:02 47° 89° (E) 21:38:20 435.215
ITUPSAT 1 04 Mar 21:26:13 21:28:06 12° 297° (WNW) 21:29:44 437.325
HORYU 2 04 Mar 21:36:45 21:40:36 28° 264° (W) 21:44:23 437.375
BEESAT 3 04 Mar 21:50:13 21:53:17 21° 112° (ESE) 21:56:29 437.485
MOZHAYETS 4 04 Mar 22:01:11 22:04:35 21° 92° (E) 22:08:08
JAS-2 04 Mar 22:04:18 22:09:45 71° 259° (WSW) 22:15:56 435.910
VERMONT LUNAR 04 Mar 22:05:19 22:08:17 27° 152° (SSE) 22:11:18 437.305
KKS-1 04 Mar 22:12:59 22:15:41 15° 294° (WNW) 22:18:12 437.445
STARS 04 Mar 22:14:05 22:17:28 22° 292° (WNW) 22:20:45 437.465
BEESAT 2 04 Mar 22:17:14 22:20:59 36° 115° (ESE) 22:24:50 435.950
Cubesat XI-IV 04 Mar 22:19:30 22:22:51 18° 64° (ENE) 22:26:24 437.490
M-CUBED/EXP-1 PRIME 04 Mar 22:19:46 22:23:49 37° 103° (ESE) 22:28:08 437.505
AUBIESAT-1 04 Mar 22:20:04 22:24:02 33° 102° (ESE) 22:28:15 437.475
ISS 04 Mar 22:23:13 22:24:12 11° 231° (SW) 22:25:04 145.825
PHONESAT 2.4 04 Mar 22:23:56 22:26:35 19° 149° (SSE) 22:29:18 2401.200-2431.200
AIST 2 04 Mar 22:27:05 22:29:49 17° 111° (ESE) 22:32:44 435.215
CUTE-I 04 Mar 22:27:23 22:31:09 20° 65° (ENE) 22:35:06 437.470
AO-7 04 Mar 23:14:02 23:19:37 18° 271° (W) 23:24:42 29.400- 29.500
YUBILEINY 04 Mar 23:19:08 23:27:05 37° 289° (WNW) 23:34:58 435.215
BEESAT 3 04 Mar 23:27:27 23:31:12 33° 308° (NW) 23:34:59 437.485
MOZHAYETS 4 04 Mar 23:37:41 23:41:58 37° 288° (WNW) 23:46:12
VERMONT LUNAR 04 Mar 23:42:28 23:45:59 88° 161° (SSE) 23:49:29 437.305
AIST 1 04 Mar 23:55:11 23:59:34 63° 81° (E) 00:03:54
M-CUBED/EXP-1 PRIME 04 Mar 23:55:13 23:58:34 22° 295° (WNW) 00:01:59 437.505
AUBIESAT-1 04 Mar 23:55:15 23:58:46 24° 295° (WNW) 00:02:22 437.475
BEESAT 2 04 Mar 23:56:01 23:59:18 22° 313° (NW) 00:02:33 435.950
Cubesat XI-IV 04 Mar 23:57:12 00:02:30 61° 259° (W) 00:07:51 437.490
PRISM 04 Mar 23:57:20 00:00:47 24° 95° (E) 00:04:17 437.425
PHONESAT 2.4 05 Mar 00:01:04 00:04:42 71° 163° (SSE) 00:08:20 2401.200-2431.200
AIST 2 05 Mar 00:04:04 00:08:08 43° 306° (NW) 00:12:16 435.215
CUBESAT XI-V 05 Mar 00:05:26 00:09:39 32° 96° (E) 00:13:52 437.345
CUTE-I 05 Mar 00:05:40 00:10:53 52° 260° (W) 00:16:09 437.470
O/OREOS (USA 219) 05 Mar 00:07:00 00:11:02 30° 60° (ENE) 00:15:05 437.305
HO-68 05 Mar 00:18:05 00:21:59 16° 56° (NE) 00:26:14 435.675
STRAND 1 05 Mar 01:01:37 01:06:47 71° 102° (ESE) 01:11:54 437.568
AAUSAT CUBESAT 2 05 Mar 01:18:20 01:19:58 12° 66° (ENE) 01:21:48 437.432
VERMONT LUNAR 05 Mar 01:20:29 01:23:59 71° 4° (N) 01:27:28 437.305
COMPASS 1 05 Mar 01:21:47 01:24:13 16° 67° (ENE) 01:26:49 437.405
GOMX 1 05 Mar 01:22:20 01:26:59 32° 71° (ENE) 01:31:31 467.674
BRITE-PL 05 Mar 01:27:41 01:33:09 54° 74° (ENE) 01:38:24 437.365/2234.400
PRISM 05 Mar 01:32:40 01:36:15 26° 290° (WNW) 01:39:46 437.425
PHONESAT 2.4 05 Mar 01:39:35 01:43:13 70° 359° (N) 01:46:51 2401.200-2431.200
CINEMA 3 05 Mar 01:40:36 01:43:30 17° 68° (ENE) 01:46:30 145.822/145.860
GONETS M04 05 Mar 01:42:25 01:43:40 11° 76° (ENE) 01:45:46
CUBESAT XI-V 05 Mar 01:43:08 01:46:58 25° 291° (WNW) 01:50:42 437.345
O/OREOS (USA 219) 05 Mar 01:46:34 01:50:23 25° 257° (WSW) 01:54:04 437.305
DOVE 4 05 Mar 01:46:49 01:51:29 38° 72° (ENE) 01:55:59 437.250
CUBEBUG 2 05 Mar 01:49:05 01:49:40 10° 65° (ENE) 01:50:29 437.445
SEEDS 05 Mar 01:50:47 01:54:41 40° 73° (ENE) 01:58:38 437.485
PCSat 05 Mar 01:50:54 01:56:10 56° 114° (ESE) 02:01:30 145.827
CANX-2 05 Mar 01:57:16 02:01:26 65° 75° (ENE) 02:05:37 2200.000
HO-68 05 Mar 02:01:40 02:08:48 85° 74° (ENE) 02:16:01 435.675
DELFI C3 05 Mar 02:11:49 02:14:31 18° 68° (ENE) 02:17:21 145.870
CUTE 1.7 + AOD 2 05 Mar 02:15:29 02:19:42 85° 258° (WSW) 02:23:56 437.475
FUNcube-1 05 Mar 02:15:34 02:17:33 13° 67° (ENE) 02:19:44 145.935
ZACube-1 05 Mar 02:17:23 02:19:37 14° 67° (ENE) 02:22:00 437.345
UKube-1 05 Mar 02:20:39 02:23:02 15° 66° (ENE) 02:25:37 .
RS-15 05 Mar 02:39:01 02:41:26 11° 99° (E) 02:45:00 29.354- 29.394
UWE-3 05 Mar 02:39:49 02:43:41 31° 71° (ENE) 02:47:30 435.000/436.395/437.385
STRAND 1 05 Mar 02:42:38 02:45:27 14° 297° (WNW) 02:48:02 437.568
AAUSAT CUBESAT 2 05 Mar 02:51:10 02:55:13 53° 261° (W) 02:59:18 437.432
COMPASS 1 05 Mar 02:55:43 02:59:39 40° 262° (W) 03:03:35 437.405
VERMONT LUNAR 05 Mar 02:58:27 03:01:52 53° 201° (SSW) 03:05:15 437.305
Oscar 11 05 Mar 02:59:42 03:04:00 86° 77° (ENE) 03:08:19 145.826/435.025
GOMX 1 05 Mar 03:00:21 03:05:05 30° 265° (W) 03:09:34 467.674
BRITE-PL 05 Mar 03:07:50 03:11:56 20° 269° (W) 03:15:45 437.365/2234.400
50 SAT 05 Mar 03:11:23 03:14:08 19° 69° (ENE) 03:17:00 437.505
CINEMA 3 05 Mar 03:15:49 03:20:27 48° 261° (W) 03:24:52 145.822/145.860
PHONESAT 2.4 05 Mar 03:18:06 03:21:44 71° 197° (SSW) 03:25:21 2401.200-2431.200
CUBEBUG 2 05 Mar 03:21:24 03:25:54 74° 258° (WSW) 03:30:16 437.445
DOVE 4 05 Mar 03:25:12 03:29:20 24° 266° (W) 03:33:13 437.250
DX 1 05 Mar 03:27:45 03:32:08 86° 76° (ENE) 03:36:34 434.975-435.025
SEEDS 05 Mar 03:28:12 03:30:45 15° 269° (W) 03:33:09 437.485
GONETS M04 05 Mar 03:30:32 03:39:06 69° 93° (E) 03:47:43
PCSat 05 Mar 03:35:45 03:40:00 22° 313° (NW) 03:44:09 145.827
HUMSAT D 05 Mar 03:36:42 03:40:48 55° 75° (ENE) 03:44:52 437.325/437.525
CUBEBUG 1 05 Mar 03:38:34 03:41:37 19° 67° (ENE) 03:44:49 437.445
AISAT 05 Mar 03:41:34 03:45:53 48° 73° (ENE) 03:50:14 437.250
DELFI C3 05 Mar 03:45:52 03:49:31 33° 263° (W) 03:53:11 145.870
FUNcube-1 05 Mar 03:49:17 03:53:33 53° 260° (W) 03:57:44 145.935
VELOX 1 05 Mar 03:49:54 03:54:17 58° 74° (ENE) 03:58:43 145.980
ZACube-1 05 Mar 03:51:25 03:55:40 49° 261° (W) 03:59:50 437.345
HO-68 05 Mar 03:53:11 03:57:31 16° 272° (W) 04:01:24 435.675
UKube-1 05 Mar 03:54:37 03:58:51 49° 260° (W) 04:03:05 .
ESTCUBE 1 05 Mar 04:14:09 04:18:30 50° 73° (ENE) 04:22:55 437.505/2401.250
BUGSAT 1 05 Mar 04:16:25 04:18:06 12° 90° (E) 04:20:00 437.445
UWE-3 05 Mar 04:16:47 04:20:17 22° 266° (W) 04:23:36 435.000/436.395/437.385
QB50P1 05 Mar 04:17:02 04:19:56 18° 92° (E) 04:22:58 145.935-145.965
QB50P2 05 Mar 04:21:29 04:24:40 21° 93° (E) 04:27:57 145.880/145.840
UNISAT 6 05 Mar 04:24:13 04:28:19 42° 99° (E) 04:32:29 437.425
CUSAT 1 05 Mar 04:24:47 04:27:57 15° 94° (E) 04:30:59 437.405
DUCHIFAT 1 05 Mar 04:34:10 04:37:48 28° 96° (E) 04:41:28 145.980
VERMONT LUNAR 05 Mar 04:37:41 04:39:19 13° 214° (SW) 04:40:51 437.305
RS-15 05 Mar 04:41:17 04:51:59 67° 115° (ESE) 05:02:51 29.354- 29.394
50 SAT 05 Mar 04:45:26 04:48:59 30° 264° (W) 04:52:29 437.505
TIGRISAT 05 Mar 04:48:01 04:52:20 79° 102° (ESE) 04:56:41 435.000
POPSAT HIP 1 05 Mar 04:56:07 05:00:15 52° 100° (E) 05:04:21 437.405
POLYITAN 1 05 Mar 04:56:47 05:00:56 54° 100° (E) 05:05:03 437.675
PHONESAT 2.4 05 Mar 04:57:09 04:59:50 19° 212° (SSW) 05:02:28 2401.200-2431.200
ANTELSAT 05 Mar 05:02:58 05:07:15 68° 285° (WNW) 05:11:36 437.575/2403.000
CUBEBUG 1 05 Mar 05:13:34 05:17:45 39° 262° (W) 05:21:55 437.445
HUMSAT D 05 Mar 05:15:41 05:17:00 11° 271° (W) 05:18:04 437.325/437.525
NANOSAT C BR1 05 Mar 05:18:19 05:22:33 84° 284° (WNW) 05:26:44 145.865
AISAT 05 Mar 05:20:09 05:22:49 15° 269° (W) 05:25:19 437.250
VELOX 1 05 Mar 05:29:20 05:31:19 12° 271° (W) 05:33:03 145.980
GONETS M04 05 Mar 05:29:53 05:36:49 25° 294° (WNW) 05:43:29
TISAT 1 05 Mar 05:31:40 05:35:56 73° 76° (ENE) 05:40:13 437.305
SPROUT 05 Mar 05:36:09 05:40:29 90° 180° (S) 05:44:51 437.525
DANDE 05 Mar 05:48:12 05:54:59 80° 100° (E) 06:00:02 436.750
BUGSAT 1 05 Mar 05:49:57 05:53:58 47° 287° (WNW) 05:57:53 437.445
QB50P1 05 Mar 05:52:07 05:55:58 34° 289° (WNW) 05:59:44 145.935-145.965
ESTCUBE 1 05 Mar 05:53:08 05:55:45 15° 270° (W) 05:58:10 437.505/2401.250
QB50P2 05 Mar 05:56:56 06:00:39 30° 289° (WNW) 06:04:17 145.880/145.840
UNISAT 6 05 Mar 06:02:04 06:04:51 16° 293° (WNW) 06:07:29 437.425
CUSAT 1 05 Mar 06:04:45 06:10:51 58° 281° (W) 06:15:23 437.405
SO-50 05 Mar 06:08:57 06:12:33 24° 112° (ESE) 06:16:21 436.795
DUCHIFAT 1 05 Mar 06:10:13 06:13:33 22° 291° (WNW) 06:16:46 145.980
BEESAT 3 05 Mar 06:10:50 06:12:39 13° 41° (NE) 06:14:37 437.485
SWISSCUBE 05 Mar 06:15:03 06:19:23 36° 70° (ENE) 06:23:47 437.505
BEESAT 05 Mar 06:23:07 06:27:32 40° 71° (ENE) 06:32:02 436.000
POPSAT HIP 1 05 Mar 06:33:40 06:35:45 13° 294° (WNW) 06:37:38 437.405
POLYITAN 1 05 Mar 06:34:31 06:36:28 13° 295° (WNW) 06:38:13 437.675
BEESAT 2 05 Mar 06:38:14 06:41:13 19° 46° (NE) 06:44:17 435.950
Oscar 19 05 Mar 06:46:17 06:50:17 23° 93° (E) 06:54:24 437.125/150
AIST 2 05 Mar 06:50:13 06:51:40 12° 39° (NE) 06:53:16 435.215
ITUPSAT 1 05 Mar 06:51:38 06:56:24 79° 76° (ENE) 07:01:14 437.325
RS-15 05 Mar 06:55:08 07:05:10 38° 320° (NW) 07:15:15 29.354- 29.394
KKS-1 05 Mar 07:32:18 07:36:27 39° 72° (ENE) 07:40:39 437.445
STARS 05 Mar 07:33:33 07:37:11 26° 69° (ENE) 07:40:54 437.465
YUBILEINY 05 Mar 07:33:57 07:40:14 22° 64° (ENE) 07:46:53 435.215
DANDE 05 Mar 07:35:47 07:38:29 13° 290° (WNW) 07:40:36 436.750
BEESAT 3 05 Mar 07:47:11 07:51:20 76° 239° (WSW) 07:55:23 437.485
SO-50 05 Mar 07:48:35 07:52:54 38° 309° (NW) 07:57:21 436.795
SWISSCUBE 05 Mar 07:53:36 07:57:22 22° 267° (W) 08:01:03 437.505
BEESAT 05 Mar 08:02:02 08:05:36 20° 268° (W) 08:09:01 436.000
JUGNU 05 Mar 08:10:41 08:11:49 11° 177° (S) 08:12:58 437.505
Gurwin Techsat 1B 05 Mar 08:15:21 08:20:23 42° 98° (E) 08:25:25 435.225
BEESAT 2 05 Mar 08:15:41 08:19:38 42° 244° (WSW) 08:23:30 435.950
Oscar 19 05 Mar 08:25:03 08:29:48 39° 290° (WNW) 08:34:31 437.125/150
AIST 2 05 Mar 08:26:42 08:30:59 88° 51° (NE) 08:35:12 435.215
ITAMSAT 1 05 Mar 08:28:31 08:33:45 74° 102° (ESE) 08:38:58 435.822/435.867
MOZHAYETS 4 05 Mar 09:02:51 09:05:50 18° 67° (ENE) 09:08:59
AUBIESAT-1 05 Mar 09:08:49 09:11:43 29° 66° (ENE) 09:14:46 437.475
M-CUBED/EXP-1 PRIME 05 Mar 09:08:56 09:11:56 33° 67° (ENE) 09:15:06 437.505
STARS 05 Mar 09:09:49 09:13:37 27° 265° (W) 09:17:21 437.465
KKS-1 05 Mar 09:10:08 09:13:18 18° 268° (W) 09:16:18 437.445
JAS-2 05 Mar 09:14:20 09:19:45 22° 89° (E) 09:25:38 435.910
RS-15 05 Mar 09:14:59 09:22:03 18° 353° (N) 09:29:09 29.354- 29.394
AO-7 05 Mar 09:20:50 09:27:49 31° 95° (E) 09:34:59 29.400- 29.500
HORYU 2 05 Mar 09:28:22 09:32:47 58° 101° (E) 09:37:10 437.375
YUBILEINY 05 Mar 09:29:21 09:38:13 78° 265° (W) 09:47:00 435.215
Gurwin Techsat 1B 05 Mar 09:55:54 10:00:09 24° 294° (WNW) 10:04:16 435.225
SRMSAT 05 Mar 10:05:02 10:06:37 11° 179° (S) 10:08:12 437.500
ITAMSAT 1 05 Mar 10:09:58 10:12:42 14° 298° (WNW) 10:15:12 435.822/435.867
MOZHAYETS 4 05 Mar 10:38:26 10:42:46 43° 262° (W) 10:47:09
PCSat 05 Mar 10:39:57 10:44:56 37° 53° (NE) 10:49:57 145.827
STRAND 1 05 Mar 10:41:40 10:43:00 11° 61° (ENE) 10:44:38 437.568
AUBIESAT-1 05 Mar 10:45:02 10:46:49 13° 264° (W) 10:48:29 437.475
M-CUBED/EXP-1 PRIME 05 Mar 10:45:53 10:47:10 12° 265° (W) 10:48:19 437.505
PRISM 05 Mar 10:47:42 10:50:17 17° 67° (ENE) 10:53:02 437.425
JAS-2 05 Mar 10:57:52 11:05:26 76° 286° (WNW) 11:13:17 435.910
HORYU 2 05 Mar 11:06:46 11:09:02 13° 295° (WNW) 11:11:04 437.375
CUBESAT XI-V 05 Mar 11:08:01 11:12:00 29° 70° (ENE) 11:16:05 437.345
AO-7 05 Mar 11:12:59 11:21:04 57° 293° (WNW) 11:29:04 29.400- 29.500
YUBILEINY 05 Mar 11:29:35 11:33:46 14° 282° (WNW) 11:37:14 435.215
RS-15 05 Mar 11:31:07 11:39:57 26° 28° (NNE) 11:49:22 29.354- 29.394
Cubesat XI-IV 05 Mar 12:15:34 12:20:53 59° 100° (E) 12:26:09 437.490
STRAND 1 05 Mar 12:16:22 12:21:31 90° 79° (ENE) 12:26:44 437.568
PRISM 05 Mar 12:21:37 12:25:31 39° 262° (W) 12:29:27 437.425
PCSat 05 Mar 12:23:33 12:28:17 30° 250° (WSW) 12:32:54 145.827
AIST 1 05 Mar 12:23:38 12:27:40 39° 92° (E) 12:31:48
CUTE-I 05 Mar 12:23:43 12:29:04 70° 101° (ESE) 12:34:24 437.470
JAS-2 05 Mar 12:45:11 12:49:32 16° 301° (WNW) 12:53:34 435.910
CUBESAT XI-V 05 Mar 12:45:24 12:49:26 27° 266° (W) 12:53:25 437.345
AO-7 05 Mar 13:09:09 13:12:17 12° 313° (NW) 13:14:56 29.400- 29.500
ISS 05 Mar 13:23:14 13:26:12 35° 136° (SE) 13:29:12 145.825
HO-68 05 Mar 13:32:35 13:36:33 16° 88° (E) 13:40:57 435.675
BRITE-PL 05 Mar 13:35:57 13:38:18 15° 89° (E) 13:40:47 437.365/2234.400
GONETS M04 05 Mar 13:42:27 13:49:58 32° 69° (ENE) 13:57:41
RS-15 05 Mar 13:43:25 13:54:52 73° 55° (NE) 14:06:52 29.354- 29.394
CANX-2 05 Mar 13:45:44 13:47:21 12° 89° (E) 13:49:12 2200.000
Cubesat XI-IV 05 Mar 13:56:55 14:00:33 18° 296° (WNW) 14:03:59 437.490
AIST 1 05 Mar 14:02:43 14:05:36 16° 290° (WNW) 14:08:20
CUTE 1.7 + AOD 2 05 Mar 14:02:53 14:05:44 18° 92° (E) 14:08:43 437.475
CUTE-I 05 Mar 14:05:28 14:08:38 16° 297° (WNW) 14:11:34 437.470
O/OREOS (USA 219) 05 Mar 14:17:54 14:22:10 41° 106° (ESE) 14:26:30 437.305
AAUSAT CUBESAT 2 05 Mar 14:35:51 14:39:17 25° 94° (E) 14:42:48 437.432
COMPASS 1 05 Mar 14:40:25 14:44:12 32° 96° (E) 14:48:01 437.405
SO-50 05 Mar 14:40:54 14:44:36 21° 44° (NE) 14:48:24 436.795
Oscar 11 05 Mar 14:49:17 14:52:02 17° 91° (E) 14:54:55 145.826/435.025
ISS 05 Mar 14:59:51 15:02:38 26° 332° (NNW) 15:05:24 145.825
GOMX 1 05 Mar 15:03:15 15:07:35 86° 283° (WNW) 15:11:44 467.674
QB50P1 05 Mar 15:10:04 15:12:07 14° 66° (ENE) 15:14:22 145.935-145.965
SEEDS 05 Mar 15:11:40 15:15:55 86° 285° (WNW) 15:20:10 437.485
CINEMA 3 05 Mar 15:12:03 15:15:57 39° 98° (E) 15:19:52 145.822/145.860
BRITE-PL 05 Mar 15:13:01 15:17:15 43° 288° (WNW) 15:21:14 437.365/2234.400
CUBEBUG 2 05 Mar 15:14:20 15:17:35 22° 94° (E) 15:20:56 437.445
QB50P2 05 Mar 15:14:28 15:16:56 16° 67° (ENE) 15:19:34 145.880/145.840
HO-68 05 Mar 15:18:00 15:25:14 85° 287° (WNW) 15:32:26 435.675
DX 1 05 Mar 15:18:37 15:21:12 16° 91° (E) 15:23:57 434.975-435.025
CANX-2 05 Mar 15:19:32 15:23:41 52° 286° (WNW) 15:27:50 2200.000
UNISAT 6 05 Mar 15:22:34 15:26:29 34° 72° (ENE) 15:30:24 437.425
DOVE 4 05 Mar 15:24:45 15:28:58 72° 284° (WNW) 15:33:05 437.250
DUCHIFAT 1 05 Mar 15:26:21 15:29:25 20° 68° (ENE) 15:32:37 145.980
DELFI C3 05 Mar 15:26:36 15:30:21 34° 97° (E) 15:34:05 145.870
